Theta_e
315 316 316 315 314 313 313 312 312 313 314 315 317 322 328 330 329 331 336 339 338 338 338 335 336 336 336 336 340 343 343 347 346 348 350 344 344 342 346 350 352 352 350 350 353
315 315 316 316 315 314 313 313 313 313 313 315 316 322 328 329 326 331 339 336 337 338 337 335 335 336 337 337 340 337 340 345 343 344 346 345 344 342 344 349 353 351 350 349 352
315 314 315 316 316 315 314 313 313 313 313 315 316 321 327 328 325 331 337 336 337 339 336 335 336 336 337 337 340 338 341 339 339 340 345 346 344 343 348 351 351 351 350 349 351
317 315 314 316 316 316 315 314 313 313 313 314 316 322 326 326 333 334 335 336 336 339 336 336 337 338 335 338 337 336 338 339 338 338 345 347 346 346 347 351 351 351 350 350 350
318 317 314 315 316 316 316 315 314 313 313 314 316 322 326 327 327 333 333 334 335 338 336 337 337 338 338 338 337 335 337 337 337 337 340 341 345 345 342 350 351 350 350 350 349
318 319 315 314 316 317 316 315 314 314 313 314 315 320 323 329 332 333 333 335 339 337 337 338 336 337 338 336 335 335 335 336 337 337 337 342 343 343 346 351 351 350 349 349 349
317 319 316 314 316 317 317 316 315 314 314 314 315 319 323 326 331 330 332 334 337 337 337 336 335 336 337 335 336 335 336 337 337 335 338 340 344 345 349 351 351 350 349 349 349
316 319 318 314 315 317 317 316 315 314 314 314 316 319 325 321 328 330 332 335 337 336 336 336 335 336 336 337 335 335 337 340 339 336 336 335 340 343 346 350 351 351 350 349 349
315 318 319 314 315 317 317 316 315 314 314 315 318 321 328 328 329 328 330 334 336 336 336 336 336 335 335 334 334 336 337 341 341 336 336 334 339 341 342 347 350 351 351 350 349
315 317 318 314 315 317 317 316 315 314 314 315 321 326 328 328 329 328 330 333 335 336 335 335 335 332 332 334 335 337 336 335 336 334 333 331 331 335 342 341 348 349 351 350 350
314 317 318 315 315 317 317 316 315 315 318 321 326 326 329 328 329 327 330 333 334 335 333 335 332 332 334 336 332 331 331 333 334 333 332 332 331 330 334 339 345 347 350 351 351
314 316 317 315 316 317 316 319 322 326 322 318 324 325 325 327 328 328 330 332 333 332 332 332 332 334 337 331 330 330 331 333 333 333 330 330 331 331 335 336 339 345 349 350 351
314 316 316 315 316 317 317 319 325 325 325 325 323 325 325 327 326 327 329 330 333 333 333 332 334 335 334 332 331 331 332 333 332 332 331 330 340 341 340 340 339 338 348 349 350
315 316 316 315 315 316 316 322 324 324 327 332 324 325 325 325 324 325 327 329 331 333 333 333 335 336 334 331 331 331 332 332 332 330 329 331 343 345 342 341 339 341 341 348 349
315 317 315 316 324 318 321 324 325 324 335 331 325 325 324 325 326 326 327 327 328 332 334 333 334 334 335 332 331 332 332 332 333 330 330 332 345 343 341 337 338 340 343 342 348
316 317 315 316 321 326 327 327 326 328 334 325 325 323 324 326 326 327 328 328 329 330 330 331 334 333 332 331 331 332 331 330 330 330 332 338 341 340 344 342 337 337 342 343 344
317 318 315 319 324 326 327 328 327 331 329 324 325 325 325 325 326 326 326 327 328 331 330 331 330 331 331 330 329 331 327 327 334 341 339 336 343 339 340 340 338 338 340 346 344
319 320 316 319 326 327 328 328 333 334 331 326 327 325 326 326 325 326 327 328 329 329 327 329 328 328 329 328 328 328 328 328 340 341 341 340 346 344 340 337 337 339 348 352 355
323 322 316 321 326 327 326 330 335 339 333 327 325 325 325 326 327 325 326 326 327 325 326 327 329 329 329 330 328 328 328 328 332 336 340 343 343 341 341 341 340 341 355 350 339
322 327 317 320 323 324 329 331 335 336 336 326 326 326 326 325 326 324 325 326 327 327 325 326 329 332 332 333 331 331 330 330 333 343 353 349 348 349 342 343 342 356 356 352 349
323 330 326 321 321 325 330 331 334 335 334 329 327 326 326 326 325 326 326 327 327 328 328 329 327 334 334 333 330 330 328 330 332 335 342 347 347 343 340 337 339 353 349 347 343
327 333 323 323 325 327 327 328 331 332 333 334 334 334 331 328 326 326 332 329 331 332 332 329 326 328 333 335 335 334 336 335 335 337 338 342 343 340 338 339 341 351 352 351 350
326 334 328 326 327 327 327 327 328 332 333 331 333 333 333 333 330 329 335 333 332 334 334 331 333 330 331 336 333 337 336 333 335 327 332 341 343 338 338 334 337 339 350 350 350
324 336 327 327 327 327 329 333 333 332 331 333 333 333 333 333 331 334 333 333 334 334 333 332 329 331 331 337 336 338 338 337 334 335 335 338 338 335 336 336 336 335 335 340 350
326 337 337 328 326 326 328 332 334 331 330 331 334 335 334 337 336 336 334 333 334 332 334 331 332 334 333 338 340 339 337 337 339 333 336 336 339 337 336 336 338 336 335 340 345
329 334 335 337 336 327 328 332 332 330 332 330 333 333 333 336 337 338 336 337 336 335 335 333 333 337 337 335 337 339 338 338 339 337 333 339 339 335 336 336 338 338 337 335 339
330 330 332 339 338 326 327 329 330 331 334 332 334 336 336 336 334 335 336 336 335 336 336 334 332 334 335 335 334 335 335 335 335 332 330 332 338 337 338 338 337 337 337 337 337
Wind_Speed
10 10 10 10 10 9 8 8 8 9 8 8 9 9 10 12 13 14 16 8 17 15 20 21 18 27 17 25 13 12 5 3 3 4 14 25 7 10 7 6 7 7 28 33 31
11 11 11 11 10 10 9 8 8 8 8 8 8 8 8 12 15 18 9 10 16 17 18 21 26 26 22 15 1 5 5 4 6 7 13 18 12 0 4 2 21 26 26 30 33
12 11 11 11 10 10 9 8 8 8 7 8 8 8 7 11 14 17 12 9 13 15 18 22 25 27 32 24 9 6 4 8 9 7 29 17 9 16 7 2 24 28 30 26 32
13 11 10 11 10 9 8 8 7 7 7 7 8 7 8 8 2 3 10 11 12 14 18 22 22 27 13 3 15 10 6 13 8 5 22 11 13 18 14 18 22 25 26 24 25
13 11 9 10 10 9 8 7 7 7 7 7 8 7 7 7 13 2 5 10 12 15 18 19 29 13 7 5 14 8 2 14 13 9 13 7 21 18 20 28 28 24 24 24 23
14 11 8 8 9 9 8 7 7 6 6 7 7 7 7 9 6 8 5 7 11 13 21 23 20 20 10 3 8 4 5 11 16 8 7 6 10 14 16 28 28 28 26 23 23
14 11 8 7 8 8 8 7 6 6 6 7 6 8 11 22 2 2 5 8 13 13 21 20 16 17 22 8 6 8 6 1 8 7 3 9 7 1 28 30 31 29 27 24 22
14 11 8 5 7 8 7 6 6 5 6 6 6 6 11 15 8 5 7 8 12 14 13 16 8 17 17 18 6 7 4 3 3 9 6 6 5 8 28 29 30 31 30 26 24
14 11 7 5 7 8 7 6 4 4 5 6 4 5 12 3 15 13 11 11 11 11 14 15 11 18 24 7 5 5 2 6 6 8 6 6 5 8 24 29 29 32 32 30 25
14 11 7 5 7 8 7 5 5 5 5 6 8 7 16 17 15 13 12 16 18 15 19 17 10 6 7 8 5 7 6 7 7 8 6 3 8 3 27 23 28 29 34 32 27
14 11 6 5 7 8 9 7 4 3 13 14 15 10 7 7 12 12 15 17 16 17 7 20 4 8 12 4 5 8 3 3 1 6 4 3 5 10 7 22 22 24 32 34 29
14 11 5 6 8 10 14 10 11 11 7 26 22 25 26 13 7 10 13 12 13 8 11 7 11 13 3 7 7 8 7 5 5 4 4 7 9 9 7 4 21 22 30 33 32
13 10 5 6 8 12 16 17 5 12 5 10 27 18 15 8 12 16 16 13 11 10 12 9 12 7 2 2 7 6 1 4 0 3 4 6 5 7 7 19 25 11 33 35 38
13 9 4 6 6 8 16 9 3 6 3 6 14 13 18 17 14 19 23 19 7 11 10 8 13 3 4 3 7 4 4 4 7 4 5 6 4 6 7 8 10 12 21 35 26
12 7 7 12 4 14 7 1 2 9 3 10 15 11 18 20 8 14 23 28 13 13 6 13 8 7 2 4 7 8 6 5 4 6 5 5 6 6 7 5 6 11 17 14 35
11 7 10 14 10 3 3 7 5 1 6 8 17 11 8 17 21 29 23 24 23 12 9 11 11 2 4 2 7 7 4 8 6 2 3 6 6 4 5 6 6 20 22 22 26
11 7 14 17 10 5 7 7 2 4 11 13 11 12 10 10 11 12 9 9 7 3 6 8 9 4 4 3 9 4 3 4 5 4 4 2 6 8 6 11 11 18 19 29 25
7 7 15 20 6 1 2 2 5 9 9 13 14 13 12 9 10 9 9 6 10 7 3 6 8 10 6 7 8 7 4 4 2 3 2 11 4 10 9 18 13 16 5 27 24
4 6 15 19 10 4 6 5 5 5 10 14 12 11 11 12 9 9 9 9 10 11 7 3 9 11 9 6 9 10 5 9 4 3 5 3 3 5 14 15 24 9 25 19 19
3 3 11 18 14 7 3 7 6 10 18 18 10 11 9 11 7 9 11 12 12 15 9 7 3 1 4 3 6 3 5 6 4 4 4 4 0 4 3 17 15 16 18 24 14
4 4 7 13 15 9 4 6 13 25 10 4 10 10 10 10 9 7 10 10 12 7 7 3 2 7 4 5 8 2 5 4 1 3 5 4 5 8 13 19 12 13 20 17 18
1 3 18 22 10 7 7 5 21 28 5 4 4 6 6 12 10 8 6 7 13 9 3 3 1 3 7 7 8 7 6 5 4 4 3 6 5 13 16 23 11 21 17 12 16
5 9 13 20 5 9 14 18 26 13 7 4 6 6 7 1 5 5 6 7 11 8 3 5 5 4 10 6 10 4 5 6 14 3 3 4 5 14 22 12 22 22 16 18 22
4 3 7 19 19 11 12 11 8 7 9 15 5 8 6 3 6 7 8 4 17 7 5 5 2 2 4 4 3 5 13 17 6 4 6 2 7 7 10 10 15 16 12 11 19
4 5 10 4 9 12 12 13 17 8 7 14 9 8 4 5 4 1 11 8 11 5 3 2 1 5 8 8 5 5 5 14 12 9 4 6 9 6 7 9 17 19 20 13 18
5 7 10 14 18 9 10 9 14 10 6 4 6 12 9 2 6 8 8 5 7 2 3 3 4 6 7 8 8 3 6 11 9 20 5 17 12 8 18 18 18 13 9 10 12
8 8 6 14 6 7 6 12 13 11 8 13 5 5 8 8 19 15 13 13 8 7 2 3 2 3 4 8 8 5 5 6 6 16 7 8 5 9 10 13 13 11 3 2 2
Wind_Direction
302 291 281 276 272 272 272 271 269 270 267 258 266 274 285 290 279 275 261 251 283 289 290 299 309 311 280 278 270 140 84 308 141 102 73 69 72 47 103 80 113 151 149 149 157
307 294 282 272 269 268 270 270 270 267 265 258 260 273 289 299 294 266 209 260 274 285 280 291 303 318 302 256 278 92 109 133 132 131 128 100 26 165 113 52 115 124 140 147 160
313 296 283 272 266 265 267 269 268 267 262 256 255 268 286 302 309 258 234 260 274 271 272 292 295 301 298 285 176 107 135 91 54 35 117 130 162 177 180 228 122 126 140 152 155
322 303 282 271 264 261 261 263 264 263 258 252 249 258 276 298 278 250 234 238 272 254 275 294 299 293 273 98 115 92 85 108 120 264 132 155 135 57 331 129 134 143 150 159 166
328 311 284 269 261 256 255 257 260 259 253 247 247 257 275 271 250 200 280 253 253 252 270 288 285 319 92 265 114 106 179 142 147 223 125 172 127 136 204 125 135 144 156 168 179
332 318 291 267 256 251 248 248 251 251 246 244 243 257 273 258 216 202 280 227 234 249 278 291 309 330 316 351 83 150 228 186 176 160 181 121 128 122 163 132 136 150 164 175 190
334 325 300 266 251 245 242 242 243 240 234 235 241 257 256 236 207 318 293 240 238 262 285 298 280 321 312 321 122 222 228 205 155 115 102 89 132 157 151 141 148 160 169 178 192
336 328 305 264 243 237 234 232 232 229 223 224 231 265 266 245 260 264 256 256 251 268 269 296 299 297 295 287 161 241 229 130 209 163 171 147 256 184 161 155 160 167 173 180 188
337 329 307 257 231 226 223 220 219 212 209 206 213 254 269 265 230 237 240 240 231 247 270 282 290 276 292 306 303 243 12 224 187 193 181 162 204 221 177 167 166 173 173 177 185
336 330 305 249 222 216 205 193 186 178 190 212 197 287 250 225 214 216 219 222 245 240 256 257 259 266 273 265 250 249 219 179 167 193 175 92 296 244 189 178 173 172 170 175 182
336 329 299 238 215 205 194 175 168 202 198 206 206 210 296 207 221 201 205 236 247 263 234 243 223 244 261 94 338 351 331 360 201 109 90 158 255 292 235 178 170 166 170 175 183
334 327 289 228 208 206 205 200 208 332 234 227 241 259 277 289 167 207 205 201 244 252 241 275 234 245 117 60 337 302 272 300 100 70 132 220 231 242 53 52 181 166 174 176 185
332 323 276 218 210 218 225 212 1 16 297 245 229 245 263 236 260 209 217 228 220 249 253 221 251 139 167 184 249 274 73 50 239 315 304 281 23 47 356 38 21 345 183 185 185
328 316 241 199 210 228 241 180 88 15 298 249 190 247 244 226 232 237 185 216 239 237 251 250 266 242 139 214 273 307 63 24 333 7 266 211 186 351 339 323 6 321 349 185 176
322 301 214 190 198 207 106 248 321 283 286 155 173 233 201 203 211 222 182 211 226 224 204 255 254 268 216 172 301 268 21 330 286 275 316 296 74 275 347 341 5 3 258 342 93
314 277 207 204 219 173 319 127 202 234 240 158 179 191 191 210 252 155 180 213 227 251 252 250 313 275 230 320 231 290 304 291 278 229 348 7 110 274 220 222 248 236 278 158 174
310 246 202 204 178 273 256 243 209 232 134 145 161 161 188 213 225 153 188 211 218 170 273 271 255 246 173 326 312 291 279 316 333 44 211 347 65 242 234 235 207 213 259 89 119
303 229 207 203 189 59 264 193 254 267 244 159 162 179 198 213 161 168 190 198 255 253 242 220 278 201 211 178 218 255 205 183 213 174 221 53 96 288 252 233 247 222 165 106 83
284 233 215 191 177 188 321 230 236 241 195 142 165 185 216 210 145 151 190 204 218 227 216 326 309 136 199 178 179 263 273 246 186 185 86 6 299 345 13 336 283 263 105 114 133
246 254 238 194 194 218 263 246 263 274 277 148 168 193 204 177 164 164 195 213 229 209 193 262 333 205 162 110 291 262 259 344 345 89 32 18 281 254 46 253 260 104 113 130 138
297 271 193 173 174 222 232 247 291 279 314 182 189 185 212 167 175 205 197 240 212 232 177 332 125 268 134 181 219 281 267 313 100 115 137 154 254 194 223 236 284 123 118 111 106
328 271 162 161 176 222 234 249 272 292 355 338 304 5 223 175 172 209 51 219 164 90 37 297 278 353 261 24 59 47 10 35 101 294 163 135 264 147 202 242 188 102 109 116 122
303 282 174 181 203 240 251 244 254 279 322 326 310 233 324 290 129 170 91 66 62 62 84 2 330 345 329 17 350 32 342 348 346 352 283 117 245 157 206 114 113 102 111 104 123
309 270 166 210 240 284 300 287 277 265 303 317 259 310 315 64 123 124 133 98 84 104 128 102 300 108 225 307 104 24 353 350 21 351 315 16 188 46 74 91 81 76 67 88 104
231 272 317 213 226 234 262 284 304 269 230 311 342 323 316 359 77 25 121 131 102 84 48 95 288 308 306 116 125 150 43 335 306 257 161 63 71 63 76 79 70 57 46 74 108
315 349 333 300 267 214 240 272 288 239 199 211 278 289 309 293 118 65 82 67 83 231 147 300 279 358 315 340 112 146 241 227 243 261 182 106 124 141 113 96 85 73 39 27 65
356 312 343 281 303 199 227 261 276 297 304 189 155 325 22 52 71 83 181 160 161 154 94 12 54 50 316 352 354 359 275 244 66 41 61 74 102 75 62 64 56 43 74 38 319